Weather History for Danville, KY

Change the Weather History Date:

Saturday, May 11, 2013

  Actual Average (KLEX) Record (KLEX)
Temperature  
Mean Temperature 56 °F 63 °F  
Max Temperature 62 °F 73 °F 92 °F (1896)
Min Temperature 51 °F 53 °F 35 °F (1945)
Degree Days  
Heating Degree Days 8 4  
Month to date heating degree days 56  
Since 1 July heating degree days 4545  
Cooling Degree Days 0 2  
Month to date cooling degree days 15  
Year to date cooling degree days 37  
Growing Degree Days 6 (Base 50)    
Moisture  
Dew Point 53 °F    
Average Humidity 89    
Maximum Humidity 100    
Minimum Humidity 67    
Precipitation  
Precipitation 0.00 in 0.17 in 1.77 in (1943)
Month to date precipitation 1.82  
Year to date precipitation 15.89  
Snow  
Snow 0.00 in 0.00 in - ()
Month to date snowfall 0.0  
Since 1 July snowfall 13.0  
Snow Depth -    
Sea Level Pressure  
Sea Level Pressure 29.95 in    
Wind  
Wind Speed 6 mph (West)    
Max Wind Speed 13 mph    
Max Gust Speed 20 mph    
Visibility 8 miles    
Events Rain    
T = Trace of Precipitation, MM = Missing Value Source: NWS Daily Summary

Daily Weather History Graph

Daily Weather History Graph

Search for Another Location

Airport:

Trip Planner

Search our weather history database for the weather conditions in past years. The results will help you decide how hot, cold, wet, or windy it might be!

Date:

Astronomy

May. 11, 2013 Rise Set
Actual Time 6:33 AM EDT 8:38 PM EDT
Civil Twilight 6:04 AM EDT 9:07 PM EDT
Nautical Twilight 5:28 AM EDT 9:42 PM EDT
Astronomical Twilight 4:50 AM EDT 10:21 PM EDT
Moon 7:40 AM EDT (5/11) 10:17 PM EDT (5/11)
Length of Visible Light 15h 03m
Length of Day
14h 05m
Waxing Crescent, 3% of the Moon is Illuminated
May 11
Waxing Crescent
May 18
First Quarter
May 25
Full
May 31
Last Quarter
Jun 8
New

Hourly Weather History & Observations

Time (EDT) Temp. Dew Point Humidity Pressure Visibility Wind Dir Wind Speed Gust Speed Precip Events Conditions
12:15 AM 62.6 °F 60.8 °F 94% 29.92 in 10.0 mi SW 4.6 mph - N/A   Overcast
12:35 AM 62.6 °F 60.8 °F 94% 29.93 in 10.0 mi SW 6.9 mph - N/A   Overcast
12:55 AM 60.8 °F 60.8 °F 100% 29.92 in 10.0 mi SW 9.2 mph - N/A   Overcast
1:15 AM 60.8 °F 60.8 °F 100% 29.92 in 10.0 mi SW 8.1 mph - N/A   Overcast
1:35 AM 60.8 °F 60.8 °F 100% 29.92 in 10.0 mi WSW 5.8 mph - N/A   Overcast
1:55 AM 60.8 °F 60.8 °F 100% 29.93 in 10.0 mi WSW 6.9 mph - N/A   Overcast
2:15 AM 62.6 °F 60.8 °F 94% 29.92 in 10.0 mi West 6.9 mph - N/A Rain Heavy Rain
2:35 AM 60.8 °F 59.0 °F 94% 29.91 in 7.0 mi SW 9.2 mph - N/A Rain Light Rain
2:55 AM 60.8 °F 59.0 °F 94% 29.91 in 10.0 mi WSW 3.5 mph - N/A Rain Light Rain
3:15 AM 59.0 °F 57.2 °F 94% 29.91 in 7.0 mi WSW 3.5 mph - N/A Rain Heavy Rain
3:55 AM 59.0 °F 57.2 °F 94% 29.91 in 10.0 mi SW 4.6 mph - N/A Rain Light Rain
4:15 AM 59.0 °F 55.4 °F 88% 29.90 in 10.0 mi SSW 4.6 mph - N/A   Overcast
4:35 AM 57.2 °F 55.4 °F 94% 29.91 in 10.0 mi SW 5.8 mph - N/A Rain Light Rain
4:55 AM 57.2 °F 55.4 °F 94% 29.91 in 10.0 mi SW 3.5 mph - N/A   Overcast
5:15 AM 55.4 °F 55.4 °F 100% 29.91 in 10.0 mi Calm Calm - N/A   Overcast
5:35 AM 55.4 °F 55.4 °F 100% 29.91 in 10.0 mi West 3.5 mph - N/A   Overcast
5:55 AM 55.4 °F 55.4 °F 100% 29.91 in 10.0 mi SW 3.5 mph - N/A   Overcast
6:15 AM 55.4 °F 55.4 °F 100% 29.91 in 10.0 mi SW 4.6 mph - N/A   Overcast
6:35 AM 57.2 °F 55.4 °F 94% 29.91 in 10.0 mi West 4.6 mph - N/A   Overcast
6:55 AM 57.2 °F 55.4 °F 94% 29.92 in 10.0 mi WSW 4.6 mph - N/A   Overcast
7:15 AM 57.2 °F 55.4 °F 94% 29.92 in 10.0 mi Calm Calm - N/A   Overcast
7:35 AM 57.2 °F 55.4 °F 94% 29.92 in 7.0 mi NW 4.6 mph - N/A   Overcast
7:55 AM 57.2 °F 55.4 °F 94% 29.93 in 5.0 mi WNW 5.8 mph - N/A   Overcast
8:15 AM 57.2 °F 55.4 °F 94% 29.93 in 2.5 mi NW 4.6 mph - N/A   Overcast
8:35 AM 55.4 °F 55.4 °F 100% 29.93 in 2.5 mi WNW 5.8 mph - N/A   Overcast
8:55 AM 57.2 °F 55.4 °F 94% 29.94 in 2.0 mi WNW 6.9 mph - N/A   Overcast
9:15 AM 57.2 °F 55.4 °F 94% 29.95 in 3.0 mi West 3.5 mph - N/A   Overcast
9:35 AM 57.2 °F 55.4 °F 94% 29.95 in 3.0 mi North 6.9 mph - N/A   Overcast
9:55 AM 55.4 °F 53.6 °F 94% 29.95 in 1.2 mi NNW 4.6 mph - N/A   Overcast
10:15 AM 55.4 °F 55.4 °F 100% 29.94 in 1.5 mi Calm Calm - N/A   Overcast
10:35 AM 57.2 °F 55.4 °F 94% 29.94 in 3.0 mi NNW 6.9 mph - N/A   Overcast
10:55 AM 55.4 °F 53.6 °F 94% 29.95 in 2.0 mi NNW 8.1 mph - N/A   Overcast
11:15 AM 53.6 °F 53.6 °F 100% 29.95 in 1.8 mi WNW 6.9 mph - N/A   Overcast
11:35 AM 55.4 °F 53.6 °F 94% 29.96 in 1.5 mi NW 5.8 mph - N/A   Overcast
11:55 AM 55.4 °F 53.6 °F 94% 29.96 in 2.5 mi NW 6.9 mph - N/A   Overcast
12:15 PM 55.4 °F 53.6 °F 94% 29.96 in 5.0 mi WNW 6.9 mph - N/A   Overcast
12:35 PM 55.4 °F 53.6 °F 94% 29.96 in 5.0 mi NW 6.9 mph - N/A   Overcast
12:55 PM 53.6 °F 51.8 °F 94% 29.96 in 3.0 mi WNW 9.2 mph - N/A   Overcast
1:15 PM 55.4 °F 53.6 °F 94% 29.96 in 3.0 mi WNW 5.8 mph - N/A   Overcast
1:35 PM 53.6 °F 53.6 °F 100% 29.96 in 3.0 mi NW 6.9 mph - N/A Rain Light Rain
1:55 PM 55.4 °F 51.8 °F 88% 29.96 in 7.0 mi WNW 9.2 mph - N/A   Overcast
2:15 PM 55.4 °F 51.8 °F 88% 29.96 in 7.0 mi WNW 6.9 mph - N/A   Overcast
2:55 PM 55.4 °F 51.8 °F 88% 29.96 in 10.0 mi WNW 6.9 mph 16.1 mph N/A   Overcast
3:15 PM 55.4 °F 50.0 °F 82% 29.96 in 10.0 mi WNW 6.9 mph - N/A   Overcast
3:35 PM 55.4 °F 50.0 °F 82% 29.97 in 10.0 mi NW 12.7 mph 16.1 mph N/A   Overcast
3:55 PM 59.0 °F 51.8 °F 77% 29.96 in 10.0 mi WNW 5.8 mph - N/A   Overcast
4:15 PM 59.0 °F 50.0 °F 72% 29.96 in 10.0 mi WNW 6.9 mph 19.6 mph N/A   Overcast
4:35 PM 59.0 °F 50.0 °F 72% 29.96 in 10.0 mi NW 6.9 mph - N/A   Overcast
4:55 PM 59.0 °F 50.0 °F 72% 29.96 in 10.0 mi NW 9.2 mph 16.1 mph N/A   Overcast
5:15 PM 60.8 °F 50.0 °F 68% 29.96 in 10.0 mi WNW 8.1 mph - N/A   Overcast
5:35 PM 60.8 °F 50.0 °F 68% 29.96 in 10.0 mi NW 9.2 mph - N/A   Overcast
5:55 PM 60.8 °F 50.0 °F 68% 29.97 in 10.0 mi NW 12.7 mph 16.1 mph N/A   Overcast
6:15 PM 60.8 °F 50.0 °F 68% 29.96 in 10.0 mi NW 9.2 mph - N/A   Mostly Cloudy
6:35 PM 59.0 °F 50.0 °F 72% 29.96 in 10.0 mi WNW 8.1 mph 17.3 mph N/A   Overcast
6:55 PM 59.0 °F 48.2 °F 67% 29.97 in 10.0 mi WNW 10.4 mph - N/A   Mostly Cloudy
7:15 PM 59.0 °F 48.2 °F 67% 29.96 in 10.0 mi West 6.9 mph - N/A   Mostly Cloudy
7:35 PM 59.0 °F 48.2 °F 67% 29.96 in 10.0 mi NW 8.1 mph - N/A   Clear
7:55 PM 59.0 °F 48.2 °F 67% 29.96 in 10.0 mi WNW 5.8 mph - N/A   Clear
8:15 PM 55.4 °F 48.2 °F 77% 29.96 in 10.0 mi WNW 4.6 mph - N/A   Clear
8:35 PM 55.4 °F 48.2 °F 77% 29.97 in 10.0 mi Calm Calm - N/A   Clear
8:55 PM 53.6 °F 50.0 °F 88% 29.97 in 10.0 mi Calm Calm - N/A   Clear
9:15 PM 51.8 °F 50.0 °F 94% 29.98 in 10.0 mi Calm Calm - N/A   Clear
9:35 PM 51.8 °F 48.2 °F 88% 29.98 in 10.0 mi SW 3.5 mph - N/A   Scattered Clouds
9:55 PM 51.8 °F 48.2 °F 88% 29.98 in 10.0 mi SW 3.5 mph - N/A   Scattered Clouds
10:15 PM 51.8 °F 50.0 °F 94% 29.99 in 10.0 mi Calm Calm - N/A   Mostly Cloudy
10:35 PM 51.8 °F 50.0 °F 94% 29.99 in 10.0 mi Calm Calm - N/A   Mostly Cloudy
10:55 PM 51.8 °F 50.0 °F 94% 30.00 in 10.0 mi SW 4.6 mph - N/A   Overcast
11:15 PM 53.6 °F 50.0 °F 88% 30.00 in 10.0 mi West 8.1 mph - N/A Rain Light Rain
11:35 PM 53.6 °F 50.0 °F 88% 30.00 in 10.0 mi West 4.6 mph - N/A   Overcast
11:55 PM 53.6 °F 50.0 °F 88% 30.02 in 10.0 mi NW 10.4 mph 19.6 mph N/A Rain Light Rain